Location: Nitra
(0.0000°N, 18.0833°E)
Time: 05:49:10
(UTC+01:00)

Aureole 3 Rocket - Pass Details

Date: 24 January 2021
Orbit: 398 x 1740 km, 82.5° (Epoch: 04 March)

Event Time Altitude Azimuth Distance (km) Brightness Sun altitude
Rises 18:49:42 0° 5° (N) 2,759 6.1 -11.8°
Reaches altitude 10° 18:51:36 10° 9° (N) 1,996 5.4 -12.2°
Maximum altitude 18:55:56 58° 89° (E) 900 3.5 -13.2°
Drops below altitude 10° 19:02:04 10° 167° (SSE) 2,802 6.5 -14.7°
Sets 19:05:08 0° 170° (S) 3,989 7.3 -15.4°
